星链-33649 (STARLINK-33649)

导读

STARLINK-33649是美国SpaceX公司于2025年3月31日发射的第二代星链(Starlink)互联网卫星。星链项目旨在构建全球低轨卫星互联网星座,为全球偏远、基础设施匮乏地区提供高速低延迟宽带服务。该卫星运行于近地轨道,配备增强型相控阵天线与激光星间链路,具备强机动与自主避碰能力,设计寿命5-7年,是第二代星链全球覆盖网络的重要组成部分,可提供百兆至千兆级用户接入速率,助力实现全球全域互联。

基本信息
目录编号:
63416
目录名称:
STARLINK-33649
国际标识:
2025-065T
轨道中心:
EARTH
卫星名称:
星链-33649
卫星全名:
星链-33649 (STARLINK-33649)
卫星状态:
在轨 (已飞行529 天)
发射日期:
2025-03-31 UTC
国别 :
美国 (US)
星等 :
--
该卫星已列入 空间交会检测服务 Space Conjunction Data Service (SCDS) ,当前飞行风险评估等级: 高风险
轨道信息
数据来源 国际轨道数据 AOE轨道数据
星历时间 2026-09-11T08:07:31+0800
20小时前
查看轨道信息
2026-09-05T22:00:00+0800
6天前
查看轨道信息
半长轴 6861.13km 6861.223km
偏心率 0.0002111 0.000152
轨道倾角 43.003° 43.003°
近地点辐角 250.539° 244.153°
升交点赤经 140.274° 170.896°
平近点角 109.523° 144.448°
近地点 481.544km 482.043km
远地点 484.442km 484.129km
周期 94.266分钟 94.267分钟
每日圈数 15.27599 15.27568
详细信息
固有亮度:
5
最大亮度:
2.5
卫星平台:
Starlink V1.0
覆盖范围:
全球
运营商:
太空探索技术公司
运营商所在国:
美国
制造商(研发单位):
太空探索技术公司
制造商所在国:
美国
使用方式:
暂无
卫星简介
Starlink 计划是 SpaceX 推出的全球卫星互联网项目,通过发射低轨道卫星,为全球尤其是偏远地区提供高速、低延迟的互联网服务。自 2019 年起,Starlink 已部署数千颗卫星,旨在缩小全球数字鸿沟,推动互联网普及。该项目还为军事、航空等行业提供通信支持,带来广泛经济效益。
2D轨道图
3D轨道图
轨道高度分析图
轨道倾角分析图
轨道综合分析图
查看轨道综合分析图
与全量物体交会距离演化趋势
与全量物体交会风险概率演化趋势